When you browse on this site, cookies collect data to enhance your experience and personalize the content and advertising you see.
Visit our Privacy Policy to learn more. By continuing to use the site, you agree to this use of cookies and data.
  • In Portugal
  • List of Countries
  • For 7 days
  • Water Temperature
  • Satellite Maps
  • Weather Map
  • Weather Widgets
  • user-avatar
    Login

    Hourly Weather Bregenz

    Today, 24 January, Thursday

    Time Temperature Precipitation Wind Pressure Humidity
    00:00 -12°C° 0 mm 1 mps 629 mmHg 90%
    01:00 -13°C° 0 mm 1 mps 630 mmHg 93%
    02:00 -13°C° 0 mm 1 mps 630 mmHg 91%
    03:00 -13°C° 0 mm 1 mps 630 mmHg 90%
    04:00 -13°C° 0 mm 1 mps 631 mmHg 89%
    05:00 -13°C° 0 mm 1 mps 631 mmHg 88%
    06:00 -13°C° 0 mm 1 mps 632 mmHg 88%
    07:00 -13°C° 0 mm 1 mps 632 mmHg 87%
    08:00 -12°C° 0 mm 1 mps 633 mmHg 85%
    09:00 -11°C° 0 mm 1 mps 633 mmHg 84%
    10:00 -10°C° 0 mm 1 mps 634 mmHg 83%
    11:00 -9°C° 0 mm 1 mps 634 mmHg 82%
    12:00 -8°C° 0 mm 1 mps 634 mmHg 81%
    13:00 -7°C° 0 mm 1 mps 635 mmHg 80%
    14:00 -7°C° 0.1 mm 1 mps 635 mmHg 83%
    15:00 -7°C° 0.1 mm 1 mps 635 mmHg 85%
    16:00 -7°C° 0.1 mm 1 mps 635 mmHg 88%
    17:00 -8°C° 0.1 mm 1 mps 636 mmHg 90%
    18:00 -9°C° 0.1 mm 1 mps 636 mmHg 92%
    19:00 -9°C° 0.1 mm 1 mps 637 mmHg 94%
    20:00 -9°C° 0.1 mm 1 mps 637 mmHg 95%
    21:00 -9°C° 0.1 mm 1 mps 638 mmHg 95%
    22:00 -10°C° 0.1 mm 1 mps 638 mmHg 95%
    23:00 -10°C° 0.1 mm 1 mps 639 mmHg 95%

    Tomorrow, 25 January, Friday

    Time Temperature Precipitation Wind Pressure Humidity
    00:00 -10°C° 0.1 mm 1 mps 639 mmHg 95%
    01:00 -10°C° 0.1 mm 1 mps 639 mmHg 95%
    02:00 -11°C° 0 mm 1 mps 639 mmHg 95%
    03:00 -12°C° 0 mm 1 mps 639 mmHg 95%
    04:00 -12°C° 0 mm 0 mps 638 mmHg 95%
    05:00 -13°C° 0 mm 0 mps 639 mmHg 94%
    06:00 -13°C° 0 mm 1 mps 639 mmHg 94%
    07:00 -14°C° 0 mm 1 mps 639 mmHg 93%
    08:00 -13°C° 0 mm 1 mps 639 mmHg 91%
    09:00 -12°C° 0 mm 1 mps 640 mmHg 89%
    10:00 -11°C° 0 mm 1 mps 640 mmHg 86%
    11:00 -10°C° 0 mm 1 mps 641 mmHg 83%
    12:00 -9°C° 0 mm 1 mps 641 mmHg 79%
    13:00 -8°C° 0 mm 1 mps 641 mmHg 76%
    14:00 -8°C° 0 mm 1 mps 641 mmHg 78%
    15:00 -8°C° 0 mm 1 mps 641 mmHg 80%
    16:00 -9°C° 0 mm 1 mps 641 mmHg 82%
    17:00 -10°C° 0 mm 1 mps 641 mmHg 84%
    18:00 -11°C° 0 mm 1 mps 641 mmHg 86%
    19:00 -13°C° 0 mm 1 mps 642 mmHg 88%
    20:00 -15°C° 0 mm 2 mps 642 mmHg 85%
    21:00 -15°C° 0 mm 2 mps 642 mmHg 83%
    22:00 -16°C° 0 mm 2 mps 642 mmHg 81%
    23:00 -15°C° 0 mm 2 mps 642 mmHg 77%

    Day after tomorrow, 26 January, Saturday

    Time Temperature Precipitation Wind Pressure Humidity
    00:00 -15°C° 0 mm 2 mps 642 mmHg 74%
    01:00 -15°C° 0 mm 2 mps 642 mmHg 71%
    02:00 -14°C° 0 mm 2 mps 642 mmHg 70%
    03:00 -13°C° 0 mm 2 mps 643 mmHg 68%
    04:00 -12°C° 0 mm 2 mps 643 mmHg 67%
    05:00 -10°C° 0 mm 2 mps 643 mmHg 67%
    06:00 -9°C° 0 mm 2 mps 643 mmHg 68%
    07:00 -9°C° 0 mm 2 mps 643 mmHg 69%
    08:00 -7°C° 0 mm 2 mps 643 mmHg 71%
    09:00 -6°C° 0 mm 2 mps 643 mmHg 72%
    10:00 -5°C° 0 mm 2 mps 643 mmHg 74%
    11:00 -2°C° 0 mm 1 mps 643 mmHg 77%
    12:00 -1°C° 0 mm 1 mps 643 mmHg 80%
    13:00 0°C° 0 mm 1 mps 643 mmHg 83%
    14:00 0°C° 0 mm 1 mps 643 mmHg 84%
    15:00 0°C° 0 mm 1 mps 642 mmHg 85%
    16:00 0°C° 0 mm 1 mps 642 mmHg 87%
    17:00 -1°C° 0 mm 1 mps 642 mmHg 87%
    18:00 -2°C° 0 mm 1 mps 641 mmHg 87%
    19:00 -5°C° 0 mm 2 mps 641 mmHg 87%
    20:00 -6°C° 0 mm 2 mps 640 mmHg 86%
    21:00 -6°C° 0 mm 2 mps 640 mmHg 86%
    22:00 -7°C° 0 mm 2 mps 640 mmHg 85%
    23:00 -7°C° 0 mm 2 mps 639 mmHg 84%

    27 January, Sunday

    Time Temperature Precipitation Wind Pressure Humidity
    00:00 -7°C° 0 mm 2 mps 638 mmHg 83%
    01:00 -7°C° 0 mm 2 mps 638 mmHg 81%
    02:00 -7°C° 0 mm 2 mps 637 mmHg 80%
    03:00 -7°C° 0 mm 2 mps 637 mmHg 80%
    04:00 -7°C° 0 mm 2 mps 636 mmHg 79%
    05:00 -7°C° 0 mm 2 mps 635 mmHg 78%
    06:00 -7°C° 0 mm 2 mps 635 mmHg 78%
    07:00 -7°C° 0 mm 2 mps 634 mmHg 77%
    08:00 -6°C° 0 mm 2 mps 634 mmHg 77%
    09:00 -5°C° 0 mm 2 mps 634 mmHg 76%
    10:00 -3°C° 0 mm 2 mps 633 mmHg 76%
    11:00 -2°C° 0 mm 2 mps 633 mmHg 80%
    12:00 0°C° 0 mm 1 mps 633 mmHg 83%
    13:00 +1°C° 0 mm 1 mps 632 mmHg 87%
    14:00 +1°C° 0.1 mm 1 mps 632 mmHg 87%
    15:00 +1°C° 0.1 mm 1 mps 631 mmHg 87%
    16:00 0°C° 0.1 mm 1 mps 631 mmHg 87%
    17:00 0°C° 0.2 mm 1 mps 630 mmHg 87%
    18:00 -1°C° 0.2 mm 1 mps 630 mmHg 87%
    19:00 -4°C° 0.2 mm 2 mps 630 mmHg 88%
    20:00 -4°C° 0 mm 2 mps 630 mmHg 86%
    21:00 -5°C° 0 mm 2 mps 629 mmHg 85%
    22:00 -5°C° 0 mm 2 mps 629 mmHg 84%
    23:00 -5°C° 0.1 mm 2 mps 629 mmHg 84%

    28 January, Monday

    Time Temperature Precipitation Wind Pressure Humidity
    00:00 -5°C° 0.1 mm 2 mps 629 mmHg 84%
    01:00 -5°C° 0.1 mm 2 mps 628 mmHg 84%
    02:00 -5°C° 0.4 mm 2 mps 628 mmHg 85%
    03:00 -5°C° 0.4 mm 2 mps 628 mmHg 86%
    04:00 -5°C° 0.4 mm 2 mps 628 mmHg 87%
    05:00 -5°C° 0.8 mm 2 mps 628 mmHg 89%
    06:00 -6°C° 0.8 mm 3 mps 628 mmHg 91%
    07:00 -6°C° 0.8 mm 3 mps 629 mmHg 93%
    08:00 -6°C° 0.5 mm 3 mps 629 mmHg 92%
    09:00 -6°C° 0.5 mm 3 mps 629 mmHg 92%
    10:00 -5°C° 0.5 mm 3 mps 630 mmHg 91%
    11:00 -5°C° 0.8 mm 3 mps 630 mmHg 91%
    12:00 -5°C° 0.8 mm 3 mps 630 mmHg 91%
    13:00 -5°C° 0.8 mm 3 mps 630 mmHg 91%
    14:00 -5°C° 1.1 mm 3 mps 631 mmHg 92%
    15:00 -5°C° 1.1 mm 3 mps 631 mmHg 92%
    16:00 -7°C° 1.1 mm 4 mps 631 mmHg 93%
    17:00 -7°C° 1 mm 4 mps 632 mmHg 93%
    18:00 -7°C° 1 mm 4 mps 633 mmHg 94%
    19:00 -7°C° 1 mm 3 mps 634 mmHg 94%
    20:00 -7°C° 1.6 mm 3 mps 635 mmHg 95%
    21:00 -7°C° 1.6 mm 3 mps 636 mmHg 95%
    22:00 -7°C° 1.6 mm 3 mps 636 mmHg 96%
    23:00 -8°C° 0.7 mm 3 mps 637 mmHg 96%

    29 January, Tuesday

    Time Temperature Precipitation Wind Pressure Humidity
    00:00 -7°C° 0.7 mm 2 mps 637 mmHg 96%
    01:00 -6°C° 0.7 mm 1 mps 638 mmHg 96%
    02:00 -7°C° 0.4 mm 1 mps 638 mmHg 96%
    03:00 -7°C° 0.4 mm 1 mps 638 mmHg 96%
    04:00 -7°C° 0.4 mm 1 mps 638 mmHg 96%
    05:00 -8°C° 0.1 mm 1 mps 638 mmHg 95%
    06:00 -9°C° 0.1 mm 1 mps 638 mmHg 94%
    07:00 -9°C° 0.1 mm 1 mps 638 mmHg 92%
    08:00 -10°C° 0 mm 2 mps 639 mmHg 90%
    09:00 -9°C° 0 mm 2 mps 639 mmHg 88%
    10:00 -9°C° 0 mm 2 mps 639 mmHg 86%
    11:00 -7°C° 0 mm 2 mps 639 mmHg 83%
    12:00 -6°C° 0 mm 2 mps 639 mmHg 80%
    13:00 -3°C° 0 mm 1 mps 639 mmHg 77%
    14:00 -3°C° 0 mm 1 mps 638 mmHg 80%
    15:00 -3°C° 0 mm 1 mps 638 mmHg 83%
    16:00 -4°C° 0 mm 1 mps 638 mmHg 86%
    17:00 -6°C° 0.1 mm 2 mps 639 mmHg 87%
    18:00 -7°C° 0.1 mm 2 mps 639 mmHg 89%
    19:00 -7°C° 0.1 mm 2 mps 639 mmHg 90%
    20:00 -8°C° 0 mm 2 mps 639 mmHg 89%
    21:00 -9°C° 0 mm 2 mps 639 mmHg 88%
    22:00 -12°C° 0 mm 3 mps 639 mmHg 87%
    23:00 -12°C° 0 mm 3 mps 639 mmHg 85%
    Show more